DECAYED

NOAA 17 DEB, 48759 (Decayed)

Orbit data source: Space-Track

NOAA 17 DEB, 48759 was space debris in SSO originally from a launch on Mon, 24 Jun 2002 UTC launched from the Air Force Western Test Range (AFWTR). Debris objects in space refer to the collection of defunct objects orbiting the Earth. Examples of debris include non-operational satellites, rocket bodies, and fragments generated from explosions, collisions, or faulty payload assembly.

Loading next visibility...
Identifier
48759, 2002-032CU
Orbit
Decayed
Country
Flag of USUS
Related business
Manufacturer
Unknown
Mission
Decayed spacecraft
Bus & Motor
Unknown
Mass
Unknown
Launch date (UTC)
2002-06-24 (24 years ago)
Launch vehicle
Unknown
Launch site
Air Force Western Test Range (AFWTR)
Object type
Payload
Rocket body
Debris
Shape & HBR
Unknown shape, 0.1 m
Radar Cross Section
Small (<0.1 m²)

Expand to show TLE details & history
Last TLE update: 8 months ago

TLE from 8 months ago
0 NOAA 17 DEB
1 48759U 02032CU  25297.40066712  .02055618  00000-0  13967-1 0  9995
2 48759  98.7772   4.4750 0013892 269.9452  90.0215 15.71805620242858
Epoch: 2025-10-24T09:36Z
TLE epoch observation values (Epoch: 2025-10-24T09:36:57.639Z)
Latitude
0.00001°
Longitude
-172.81127°
Altitude
356.87 km
Speed
7.695 km/s
True Right ascension
00h 17m 53s
True Declination
0° 00' 00"
Sunlit
Object was in full shadow at epoch
Visualization orbit readout
Latitude
Unknown
Longitude
Unknown
Altitude
Unknown
Speed
Unknown
Apparent Right ascension
Unknown
Apparent Declination
Unknown
Sunlit
N/A
Visualization observer readout
Local Sidereal Time
21:28:08
Azimuth
Unknown
Elevation
Unknown
Doppler factor
Unknown
Orbital elements
Apogee altitude
360.047 km
Perigee altitude
341.351 km
Semi-major axis
6,728.836 km
Eccentricity
0.00139
Inclination
98.7772°
RAAN
4.475°
Arg. of periapsis
269.9452°
True anomaly
90.18069°
Mean anomaly
90.0215°
Eccentric anomaly
90.1011°
Mean motion
3.93218 °/min
Orbital period
91.55 mins
BSTAR
0.013967
Loading maneuver chart data...
Computing Atmospheric mass density...

Documentation

Showing up to 5 results
|